Dewpoint
4 3 4 4 4 4 3 3 3 3 1 -3 -10 -14 -15 -16 -17 -16 -16 -17 -18 -17 -15 -11 -10 -13 -14 -13 -7 -18 -21 -23 -25 -24 -19 -14 -15 -15 -13 -14 -13 -11 -14 -14 -13 -11 -11
2 3 3 3 3 3 3 3 2 2 -1 -10 -12 -14 -16 -16 -19 -18 -17 -17 -18 -17 -18 -12 -10 -11 -9 -15 -16 -17 -21 -22 -24 -14 -12 -13 -14 -14 -13 -13 -11 -13 -12 -12 -11 -11 -10
0 -2 2 3 4 4 4 3 3 3 -3 -11 -13 -14 -16 -18 -19 -20 -18 -16 -17 -17 -18 -13 -10 -10 -12 -10 -12 -18 -20 -21 -22 -18 -11 -13 -12 -11 -11 -11 -11 -11 -9 -11 -10 -10 -11
3 3 1 1 3 3 3 3 3 3 -2 -11 -13 -14 -16 -18 -20 -20 -19 -18 -18 -18 -17 -11 -10 -10 -10 -16 -13 -17 -17 -19 -20 -19 -17 -15 -10 -9 -10 -11 -12 -11 -9 -5 -10 -10 -10
3 3 2 -0 -1 0 3 3 3 3 -0 -8 -10 -13 -16 -18 -20 -21 -21 -19 -18 -17 -14 -11 -9 -7 -8 -14 -14 -14 -15 -13 -18 -16 -15 -14 -9 -9 -9 -8 -7 -10 -5 -9 -11 -11 -11
3 3 2 0 -2 -8 -7 2 3 3 1 -4 -7 -11 -15 -18 -19 -20 -19 -19 -18 -18 -13 -10 -10 -10 -11 -11 -12 -13 -16 -16 -10 -10 -9 -9 -9 -4 -7 -3 1 -11 -10 -12 -12 -12 -12
3 2 2 -0 1 -4 -9 -6 1 2 1 -2 -2 -9 -14 -17 -18 -19 -19 -14 -5 -5 -8 -10 -11 -12 -10 -11 -13 -12 -15 -13 -11 -11 -10 -11 -3 1 -8 -10 -14 -15 -15 -13 -14 -14 -13
-4 -4 -5 -2 -1 -3 -9 -9 -1 1 0 -1 -1 -8 -13 -15 -17 -18 -6 -6 -9 -9 -7 -8 -12 -12 -12 -13 -13 -12 -15 -13 -12 -12 -12 -8 -0 -13 -15 -12 -12 -11 -10 -8 -13 -14 -12
-18 -6 -8 -7 -5 -5 -6 -12 -7 -1 -1 -2 -2 -8 -12 -14 -14 -15 -7 -11 -14 -15 -11 -9 -10 -12 -13 -14 -14 -12 -13 -14 -14 -13 -11 -6 -11 -13 -11 -10 -6 -9 -8 -9 -10 -12 -14
-22 -24 -24 -16 -9 -8 -6 -7 -13 -8 -3 -2 -7 -9 -11 -13 -10 -7 -9 -15 -15 -16 -8 -9 -10 -12 -12 -13 -13 -11 -12 -13 -12 -11 -13 -12 -11 -12 -10 -10 -8 -4 -12 -11 -11 -10 -6
-22 -22 -21 -22 -23 -22 -15 -9 -8 -13 -6 -3 -6 -8 -10 -12 -7 -11 -11 -13 -16 -14 7 -10 -11 -12 -12 -14 -11 -11 -12 -14 -11 -11 -9 -6 -12 -11 -8 -9 -11 -7 -11 -11 -10 -11 -10
-25 -24 -22 -20 -20 -20 -22 -24 -15 -10 -12 -6 -4 -7 -9 -11 -9 -9 -12 -17 -14 -3 8 -9 -12 -11 -12 -13 -12 -11 -12 -13 -11 -12 -12 -12 -13 -13 -12 -11 -13 -11 -7 -9 -9 -8 -2
-27 -26 -26 -24 -22 -20 -19 -20 -22 -24 -12 -11 -6 -5 -8 -8 -5 -8 -17 -11 -2 3 -7 -7 -10 -11 -12 -11 -12 -12 -10 -9 -5 -2 -5 -11 -11 -11 -11 -10 -10 -7 -5 2 4 1 1
-17 -18 -19 -21 -23 -22 -21 -19 -19 -20 -23 -14 -9 -5 -6 -6 -6 -12 -15 -6 4 1 -4 -11 -11 -11 -10 -11 -11 -11 -11 -7 -8 -6 -2 -2 -1 -8 -11 -7 -3 -5 -4 2 3 2 -1
-16 -15 -14 -14 -15 -17 -18 -19 -18 -18 -19 -21 -11 -5 -5 -5 -7 -15 -8 0 -1 -1 -6 -9 -10 -9 -9 -11 -9 -10 -10 -4 -0 -6 1 -1 -4 -9 -9 -9 -7 -5 -8 -9 -4 -8 -7
-14 -13 -13 -12 -12 -13 -13 -15 -16 -16 -17 -18 -6 -3 -3 -5 -8 -12 -6 -1 -3 -7 -10 -10 -5 -7 -3 -8 -8 -8 -6 -1 -5 -7 -5 -3 -0 -12 -10 -10 -10 -6 -11 -6 -7 -1 1
-13 -12 -12 -11 -10 -10 -11 -12 -13 -13 -14 -13 -1 -3 -4 -5 -10 -7 -1 -1 -3 -6 -11 -8 -5 -2 -3 -3 -6 -5 -1 -5 -8 -9 -10 -5 -2 -8 -11 -8 -5 -10 -10 -8 -5 -6 -1
-9 -9 -9 -8 -8 -8 -9 -10 -11 -11 -11 -3 1 -4 -4 -6 -6 -6 -2 -2 -5 -6 -10 -9 -8 -6 -2 -3 -4 -4 -4 -3 -9 -10 -9 -9 -5 -2 -5 -7 -10 -7 -8 -7 -5 -2 -6
-7 -7 -7 -7 -8 -8 -8 -8 -8 -8 -9 2 1 -1 -4 -5 -2 -5 -4 -3 -4 -4 -7 -8 -7 -6 -5 -3 1 -4 -3 -9 -9 -9 -5 -10 -6 1 -2 -6 -10 -8 -7 -5 -7 -6 -3
4 1 -7 -6 -6 -9 -11 -10 -8 -3 -3 2 0 -0 -3 -4 -4 -2 -0 -3 -3 -3 -4 -7 -6 -7 -5 -4 -5 -0 -2 -7 -9 -10 -7 -10 0 1 2 2 -4 -6 -6 -6 -6 -4 -3
4 4 4 4 4 4 4 1 1 1 1 1 -0 0 -3 -2 -4 -3 -2 -3 -2 -0 -3 -6 -5 -5 -2 0 -2 -2 -4 -3 -5 -8 -5 -3 -1 -2 -2 -3 -4 -4 -4 -5 -6 -6 -2
4 4 4 4 4 4 4 4 4 3 2 1 0 0 0 1 -3 -3 -2 -1 -1 -1 -1 -2 -2 -3 -2 2 1 3 1 0 -1 -4 -2 -2 -2 -2 -1 -3 -4 -2 -3 -4 -6 -7 -6
3 3 3 3 4 4 4 4 4 4 3 0 0 1 1 1 1 1 -0 -1 -1 -2 -1 -2 -3 -1 -0 -1 -1 -1 -0 1 1 -3 -3 -2 -3 -1 -1 -4 -4 -2 -4 -4 -3 -5 -6
-14 -16 -12 -6 -4 -1 2 2 2 3 4 2 1 1 -0 2 1 1 -1 -1 -1 -1 0 -2 -2 0 -0 -1 -2 -2 -2 -1 0 -1 -3 -2 -3 -1 -1 -3 -1 -4 -8 -4 -4 -5 -5
-9 -10 -12 -10 -11 -14 -12 -11 -2 2 3 3 2 1 -0 1 1 1 0 1 -1 -1 -1 -1 -1 -1 -0 1 1 2 1 -2 -2 -1 -1 -2 -3 -1 -1 -1 -3 -4 -5 -5 -4 -5 -5
-2 -2 -2 -1 -1 -2 -7 -7 -9 -3 2 2 2 1 1 0 1 1 2 1 1 1 1 0 -0 -1 0 0 2 2 2 -1 -2 -4 -4 -1 -1 -1 0 -1 -1 -4 -7 -9 -7 -6 -5
-3 -3 -3 -3 -2 -2 -2 -2 -2 -4 -6 -0 0 2 2 0 0 1 2 2 2 2 2 0 0 1 0 1 2 2 2 -3 -0 -0 -3 -2 -2 -1 -1 -0 -1 -4 -9 -10 -5 -5 -4
-4 -4 -4 -4 -4 -3 -3 -3 -3 -2 -2 -2 -3 0 1 1 0 0 1 1 2 2 2 1 1 0 -0 1 2 0 1 -1 -0 -2 -2 -2 -2 -2 -2 -0 -0 -10 -13 -6 -5 -10 -11
-4 -4 -4 -4 -6 -6 -4 -4 -5 -4 -3 -3 -2 -3 -1 -0 -0 -0 1 0 -0 1 1 0 1 1 0 1 2 2 3 2 -0 1 -2 -0 -3 -2 -3 -3 -3 -11 -8 -11 -11 -8 -13
Wind_Speed
4 5 4 4 4 4 7 7 4 5 4 3 3 5 4 6 5 8 9 10 11 12 13 13 12 10 5 2 3 2 3 6 8 8 9 5 7 3 6 6 6 6 2 3 3 5 9
5 4 7 3 2 4 5 7 8 3 3 3 3 3 3 5 4 7 10 10 11 12 13 13 11 10 0 3 4 2 2 4 5 7 9 11 6 8 8 4 2 2 3 5 4 5 8
1 5 7 7 6 3 4 5 6 6 4 3 3 2 3 2 3 6 9 10 11 11 12 13 12 9 0 5 5 1 0 4 4 5 6 7 5 1 4 6 3 1 3 4 8 5 5
1 2 2 5 7 5 2 2 4 4 4 3 3 2 3 2 2 6 9 11 12 12 12 13 12 5 1 8 5 1 0 4 3 4 5 6 7 6 3 5 3 3 2 2 8 4 2
1 0 1 2 2 8 4 2 2 4 4 2 2 2 4 5 6 8 10 12 12 12 12 12 8 2 2 8 6 5 2 1 1 3 4 4 4 2 3 1 2 3 4 3 3 7 3
2 1 2 0 0 1 3 4 2 2 4 3 3 4 5 8 9 11 13 13 11 11 11 9 5 3 5 5 9 6 4 3 2 4 2 2 1 1 1 1 2 4 5 3 7 5 9
1 1 2 1 0 1 2 2 2 1 2 2 1 7 9 10 10 12 16 16 8 3 10 4 2 2 7 8 8 5 5 3 4 2 2 2 2 3 2 3 2 4 7 11 13 3 7
3 1 1 2 1 1 1 2 2 2 2 4 2 10 11 12 12 13 12 3 4 4 3 11 5 4 6 8 4 8 8 5 4 3 2 3 6 2 5 5 1 3 8 11 9 2 6
7 5 4 1 0 0 1 1 1 2 3 6 2 12 12 12 12 13 10 8 4 1 4 3 9 6 5 11 3 11 11 4 6 6 6 7 3 6 4 4 2 6 8 9 8 13 16
6 7 6 5 3 2 2 1 1 2 4 5 6 9 12 11 9 9 9 11 9 2 4 7 5 5 7 6 5 6 10 4 4 3 3 7 5 5 4 4 6 4 4 3 7 8 6
3 3 4 5 5 5 5 4 3 3 3 3 4 8 10 13 5 8 4 6 6 4 4 8 6 6 9 8 10 5 8 4 5 3 3 2 5 7 6 5 9 1 2 3 6 9 10
5 5 4 4 4 4 4 4 4 2 2 0 0 6 9 13 6 6 4 6 10 4 6 6 6 8 9 10 5 6 5 3 1 3 8 12 1 4 3 6 5 6 1 2 2 2 4
8 7 7 7 6 6 6 5 4 3 2 2 2 6 12 11 5 7 10 11 4 5 4 6 5 8 12 9 10 9 8 8 6 4 8 6 10 3 8 5 5 3 2 3 3 3 4
12 11 11 11 11 10 9 9 8 5 4 3 4 5 11 11 7 10 16 4 7 4 5 4 4 9 8 12 6 9 7 7 16 8 3 6 6 11 10 4 4 8 2 3 6 6 8
16 16 15 15 15 14 14 13 11 9 6 5 5 8 11 13 10 17 8 6 6 4 6 11 8 8 9 8 3 9 10 6 5 18 11 7 5 6 2 3 1 7 6 2 4 1 6
22 21 20 20 19 18 18 17 15 13 10 7 7 8 10 15 15 17 6 7 7 1 6 7 8 13 9 11 9 10 10 6 6 16 2 3 3 7 5 5 2 3 5 3 3 5 8
27 26 25 25 24 22 21 20 18 15 13 8 8 5 9 18 19 10 6 8 6 7 9 8 7 7 9 7 12 9 6 7 10 11 11 4 3 8 7 11 11 6 5 5 3 4 5
30 30 29 28 27 25 24 22 20 18 15 10 5 4 10 23 11 9 10 6 3 7 9 7 4 7 9 9 8 11 10 9 15 17 11 9 4 8 11 3 1 10 8 12 6 8 5
30 29 29 28 26 26 25 24 22 21 19 12 6 5 17 23 7 12 10 5 8 7 7 7 8 9 6 7 4 13 6 5 16 13 11 10 6 3 5 2 2 7 10 14 7 1 15
29 28 27 27 26 26 27 26 25 25 21 20 9 5 6 15 17 7 11 12 12 10 7 8 3 4 3 6 11 3 6 3 12 11 5 13 6 9 15 4 6 7 13 20 15 8 11
33 30 30 30 29 28 29 29 28 28 27 30 13 6 9 7 12 16 9 5 11 8 9 10 5 13 7 6 5 9 10 3 7 11 9 9 9 15 21 19 13 12 12 19 26 27 15
15 26 32 31 30 29 27 28 30 30 29 37 9 7 8 5 14 15 18 12 20 12 9 8 11 11 13 12 13 6 7 9 8 13 11 7 5 6 18 16 18 22 21 22 27 26 26
32 36 34 33 19 14 24 30 28 31 39 31 28 16 9 10 8 8 9 17 13 11 16 28 17 13 14 25 26 28 23 15 9 14 16 10 7 5 10 5 1 14 24 27 27 20 25
30 29 30 32 33 34 37 29 25 28 43 50 39 26 10 6 11 16 17 19 21 21 18 17 25 13 11 10 10 12 20 19 18 16 21 10 12 6 5 6 8 14 3 11 21 24 27
28 29 29 28 29 28 28 28 28 27 22 56 40 32 16 6 15 18 19 20 26 26 25 26 30 25 19 9 3 5 5 4 12 23 20 17 11 6 6 13 13 19 8 8 9 17 22
19 20 20 21 22 23 27 29 31 33 33 28 38 29 18 4 15 19 13 29 18 16 17 31 31 25 20 5 4 7 9 10 6 5 6 17 15 9 10 8 12 20 5 7 6 11 12
20 21 22 22 22 23 24 24 24 28 33 28 33 28 26 16 35 25 9 10 9 14 7 9 9 17 27 8 10 11 12 7 11 10 7 6 10 20 21 16 8 14 10 14 6 14 5
24 24 24 24 24 25 26 27 27 26 25 24 39 31 34 23 37 27 24 25 14 15 8 5 5 5 6 9 7 9 9 14 14 23 11 15 12 10 12 10 14 12 10 11 10 4 8
21 22 23 24 25 26 27 28 30 29 27 26 36 34 34 30 29 26 24 36 42 36 23 16 7 6 12 5 4 4 5 4 16 17 19 13 15 12 13 8 3 29 14 34 9 7 11
Wind_Direction
155 147 133 87 77 41 30 23 46 96 117 132 155 153 171 175 178 178 175 172 168 166 169 168 172 165 126 101 97 221 1 21 24 41 42 50 58 77 121 113 113 100 171 232 258 267 269
211 188 171 170 120 50 42 32 39 82 107 109 131 156 180 189 195 187 180 174 170 168 169 170 170 160 167 220 190 202 350 22 24 46 44 61 74 88 94 91 74 91 254 271 272 255 267
102 195 183 183 156 124 62 43 41 49 70 85 117 125 152 175 207 196 183 173 169 167 168 169 166 149 162 160 175 227 221 1 38 67 62 66 57 43 111 127 129 129 284 202 232 229 273
112 63 113 187 193 154 130 71 56 32 49 89 111 118 144 134 153 179 174 168 163 164 166 167 160 132 199 186 172 202 310 358 58 70 90 80 77 79 86 129 168 216 215 282 147 203 226
59 220 262 162 150 187 145 101 47 1 8 110 114 118 139 123 127 148 157 155 155 159 162 162 162 196 209 197 187 206 173 137 53 76 81 62 51 96 136 270 219 201 295 282 254 187 280
203 263 252 147 289 119 182 158 148 31 6 19 162 146 140 135 135 138 139 140 141 148 154 164 191 219 217 204 193 194 193 151 96 114 55 3 65 149 172 198 310 310 302 282 278 177 244
102 212 263 196 296 140 111 88 128 74 4 45 71 167 152 149 151 148 140 124 119 167 195 209 192 84 141 167 165 173 182 139 136 223 291 23 269 241 344 222 344 319 293 287 291 352 297
72 35 191 195 195 171 115 103 96 87 38 27 6 173 163 158 159 161 160 217 210 157 204 227 202 163 157 156 150 181 177 196 209 235 124 231 238 72 104 120 202 270 292 289 297 29 287
44 49 45 51 104 39 20 76 76 54 40 25 61 163 164 164 163 178 196 212 189 298 259 185 204 198 185 189 227 197 178 202 229 237 232 254 38 132 134 158 192 251 259 295 291 316 271
36 36 33 37 39 30 1 355 9 38 45 45 112 151 160 156 168 199 222 234 236 253 266 148 191 192 173 167 212 170 182 216 208 273 255 261 106 194 203 221 199 277 18 271 285 321 307
352 9 10 16 21 20 12 4 357 355 13 36 121 160 166 170 199 183 238 221 194 158 284 127 148 173 167 188 136 172 186 189 240 185 162 96 178 191 215 225 169 359 21 304 300 286 316
291 303 313 321 330 340 350 358 352 340 313 298 96 177 178 188 196 219 220 160 140 218 251 159 143 168 158 194 167 138 173 185 130 248 227 262 72 244 259 110 186 111 307 260 269 274 246
276 278 282 285 291 296 303 309 311 318 285 251 237 197 188 190 211 200 162 141 226 238 127 165 182 177 197 180 190 194 178 184 194 184 203 183 213 141 158 154 154 157 254 273 226 208 279
280 281 280 280 280 278 277 277 281 285 277 240 215 198 197 203 202 172 157 206 231 285 185 102 140 172 194 165 207 195 202 237 221 221 268 242 223 182 185 208 205 188 249 259 279 290 305
268 270 272 273 274 274 276 275 271 271 265 250 212 198 201 203 191 170 186 218 229 228 116 154 151 197 199 200 223 193 219 240 197 187 195 196 183 106 128 137 252 150 205 43 294 199 277
267 267 267 267 267 268 268 269 268 263 258 239 198 189 213 199 184 172 219 246 246 166 139 172 219 190 199 183 190 196 194 171 209 196 128 159 209 191 132 150 127 235 127 131 199 260 263
267 267 267 267 266 264 261 261 261 257 255 228 187 209 228 186 170 186 226 233 261 211 189 204 245 231 223 183 205 194 233 166 185 177 191 154 222 134 152 205 180 167 209 210 292 249 254
266 265 265 264 264 260 257 254 252 249 244 215 202 228 190 170 185 203 225 209 240 206 207 240 276 250 221 209 213 224 225 222 154 149 172 197 214 221 216 119 5 239 226 184 215 194 233
263 262 261 258 257 256 253 250 245 239 234 201 200 188 180 172 223 220 217 251 234 201 205 198 220 223 218 214 216 223 221 61 159 171 164 170 198 221 200 188 193 221 210 220 254 298 238
267 265 262 258 254 252 250 245 240 234 228 209 185 175 174 210 241 268 230 239 233 216 235 208 209 146 167 217 235 284 207 152 190 203 181 164 202 229 254 316 116 204 210 204 199 227 245
267 263 264 258 257 255 251 248 243 236 218 209 202 218 191 188 230 222 208 251 235 223 215 201 217 215 175 206 221 232 220 175 194 211 191 174 242 227 256 274 270 253 227 200 210 224 222
252 260 259 258 261 254 257 253 249 241 218 210 205 186 187 280 221 208 214 215 233 222 175 217 226 200 192 219 209 214 195 202 213 188 187 198 250 244 269 247 246 256 251 231 219 229 239
272 275 270 273 271 261 255 253 252 245 215 204 217 227 195 196 193 190 201 219 230 218 238 240 228 231 201 228 233 241 239 226 208 172 190 186 210 189 258 94 173 269 242 235 233 225 220
260 266 266 268 269 268 267 269 271 266 241 221 217 212 190 221 207 213 225 215 227 220 229 239 226 226 244 249 229 245 247 250 213 207 184 189 191 199 248 138 231 254 146 213 225 233 216
267 267 266 265 262 258 257 253 249 250 249 219 222 206 195 232 217 230 240 239 242 238 237 243 244 239 229 196 207 235 200 252 232 229 212 200 183 211 227 223 270 300 224 178 180 248 223
269 267 266 266 267 267 259 254 249 245 246 250 238 229 223 201 236 247 235 229 239 241 249 245 247 240 216 183 202 222 230 225 206 223 215 211 214 211 216 231 233 245 129 134 140 254 179
272 273 270 266 264 265 264 265 263 254 245 245 245 247 242 243 260 252 235 246 207 219 246 242 215 206 207 204 224 228 236 234 224 224 169 194 204 219 232 244 243 260 155 146 239 263 162
276 274 271 270 265 263 261 260 260 260 258 254 249 246 241 258 264 244 238 244 239 223 222 158 174 199 187 215 222 226 234 236 227 234 210 192 183 214 235 247 250 138 128 199 232 251 227
269 268 272 273 276 269 268 266 263 261 257 252 257 251 249 251 258 264 249 246 249 248 241 197 230 211 202 211 231 260 243 241 248 247 228 234 215 225 199 218 150 184 217 220 228 207 213
Height
1525 1525 1524 1524 1524 1523 1521 1518 1516 1515 1514 1514 1514 1515 1516 1517 1518 1519 1520 1522 1523 1525 1527 1530 1532 1534 1536 1540 1541 1538 1538 1537 1536 1535 1535 1536 1538 1539 1540 1544 1546 1547 1551 1553 1553 1554 1555
1525 1525 1524 1524 1524 1523 1521 1518 1516 1515 1515 1514 1515 1516 1516 1517 1518 1519 1520 1522 1523 1525 1527 1530 1533 1535 1538 1539 1539 1539 1539 1538 1537 1538 1537 1538 1540 1541 1542 1544 1545 1549 1550 1550 1552 1553 1553
1524 1523 1523 1523 1523 1523 1521 1519 1518 1517 1515 1515 1515 1516 1517 1518 1518 1519 1520 1522 1523 1526 1528 1531 1534 1535 1539 1541 1539 1539 1539 1539 1538 1538 1539 1539 1540 1542 1544 1546 1548 1549 1548 1548 1549 1551 1551
1525 1524 1523 1522 1522 1521 1521 1520 1519 1517 1516 1516 1516 1516 1517 1518 1518 1519 1520 1522 1524 1527 1529 1532 1535 1537 1539 1538 1539 1539 1540 1540 1539 1539 1539 1540 1541 1543 1545 1547 1547 1545 1547 1539 1545 1549 1548
1525 1524 1523 1522 1521 1520 1520 1520 1519 1518 1516 1516 1516 1516 1517 1517 1518 1519 1521 1523 1525 1528 1531 1534 1538 1539 1539 1537 1539 1539 1540 1541 1540 1541 1541 1542 1543 1545 1546 1543 1537 1539 1531 1533 1536 1545 1547
1525 1524 1522 1521 1520 1519 1519 1518 1519 1518 1516 1516 1515 1516 1517 1518 1519 1521 1523 1525 1527 1530 1533 1536 1537 1541 1538 1539 1538 1539 1540 1541 1543 1543 1545 1545 1546 1543 1543 1541 1528 1527 1532 1529 1533 1539 1542
1524 1523 1522 1521 1520 1519 1518 1518 1517 1517 1516 1515 1515 1516 1517 1519 1521 1523 1525 1528 1535 1537 1533 1532 1533 1534 1535 1537 1538 1540 1541 1543 1544 1545 1542 1546 1545 1535 1533 1538 1542 1543 1540 1536 1531 1535 1543
1523 1522 1521 1520 1519 1519 1518 1517 1517 1516 1515 1515 1515 1515 1517 1519 1521 1524 1527 1530 1529 1530 1531 1530 1531 1533 1535 1537 1540 1541 1542 1546 1545 1540 1545 1546 1539 1538 1540 1545 1546 1546 1544 1538 1532 1541 1544
1524 1522 1521 1520 1519 1519 1518 1517 1517 1516 1516 1515 1514 1515 1517 1520 1522 1524 1526 1527 1528 1529 1529 1529 1530 1532 1535 1537 1538 1539 1541 1543 1542 1540 1541 1542 1539 1543 1543 1546 1551 1545 1545 1543 1545 1542 1530
1525 1524 1523 1521 1520 1519 1518 1517 1517 1517 1516 1515 1514 1516 1517 1520 1525 1524 1525 1525 1526 1529 1524 1526 1529 1531 1533 1536 1537 1537 1539 1543 1541 1539 1540 1537 1544 1544 1544 1544 1549 1550 1546 1549 1550 1547 1527
1525 1524 1522 1521 1520 1519 1518 1517 1517 1516 1516 1515 1515 1516 1517 1519 1521 1524 1525 1524 1526 1530 1517 1525 1528 1529 1531 1534 1535 1538 1538 1540 1538 1537 1544 1533 1541 1543 1543 1540 1545 1546 1552 1553 1552 1548 1547
1523 1522 1522 1521 1519 1518 1517 1517 1516 1515 1515 1515 1515 1515 1517 1519 1520 1521 1522 1524 1528 1525 1510 1520 1524 1526 1529 1531 1533 1536 1538 1539 1540 1539 1539 1536 1543 1542 1537 1545 1547 1552 1556 1555 1555 1548 1544
1521 1521 1520 1519 1518 1517 1517 1516 1515 1515 1514 1514 1514 1514 1516 1517 1520 1519 1522 1526 1523 1513 1510 1514 1518 1522 1522 1524 1528 1530 1533 1534 1529 1533 1524 1533 1535 1541 1542 1544 1550 1555 1551 1522 1519 1534 1498
1519 1518 1517 1517 1516 1515 1515 1514 1513 1513 1512 1512 1512 1513 1514 1516 1518 1519 1523 1526 1517 1489 1493 1508 1512 1518 1517 1516 1519 1525 1524 1524 1525 1526 1522 1511 1514 1536 1540 1539 1536 1549 1545 1517 1508 1491 1486
1514 1514 1513 1513 1512 1512 1512 1511 1511 1510 1510 1510 1510 1510 1512 1514 1516 1518 1524 1516 1493 1484 1494 1502 1513 1509 1509 1513 1514 1519 1516 1509 1509 1516 1517 1511 1514 1538 1541 1543 1544 1550 1547 1546 1534 1545 1526
1509 1508 1508 1508 1508 1508 1508 1508 1508 1507 1507 1508 1508 1508 1508 1510 1513 1518 1519 1504 1491 1492 1495 1497 1488 1490 1489 1502 1512 1513 1502 1503 1507 1510 1515 1508 1510 1529 1542 1544 1546 1544 1544 1539 1539 1525 1492
1502 1502 1502 1502 1502 1502 1502 1503 1503 1504 1504 1505 1507 1507 1504 1506 1512 1517 1508 1498 1491 1491 1493 1493 1484 1483 1485 1491 1498 1500 1491 1497 1499 1509 1514 1516 1514 1529 1539 1534 1525 1544 1537 1541 1537 1517 1501
1494 1494 1494 1494 1494 1495 1496 1497 1497 1498 1500 1502 1505 1503 1501 1505 1510 1503 1496 1493 1491 1488 1491 1491 1491 1484 1484 1486 1491 1488 1486 1484 1495 1503 1508 1512 1509 1502 1512 1525 1527 1521 1516 1522 1509 1504 1513
1486 1486 1486 1486 1487 1488 1489 1490 1491 1492 1493 1496 1498 1498 1500 1502 1495 1486 1487 1488 1486 1485 1486 1486 1484 1483 1482 1485 1493 1481 1482 1493 1494 1498 1499 1507 1506 1497 1501 1524 1527 1523 1515 1511 1511 1515 1498
1477 1477 1477 1478 1479 1480 1481 1482 1484 1486 1488 1491 1493 1494 1498 1498 1489 1487 1481 1479 1480 1479 1481 1481 1481 1484 1488 1487 1484 1485 1482 1493 1495 1497 1499 1502 1501 1482 1459 1465 1493 1512 1502 1503 1506 1496 1478
1467 1468 1469 1469 1469 1471 1472 1474 1475 1477 1481 1484 1482 1478 1478 1484 1482 1481 1480 1475 1473 1474 1478 1480 1480 1478 1481 1486 1484 1484 1485 1493 1496 1496 1499 1502 1492 1488 1478 1478 1483 1484 1486 1495 1496 1476 1480
1456 1456 1458 1459 1460 1461 1463 1464 1465 1467 1472 1473 1472 1472 1473 1471 1470 1472 1475 1471 1466 1467 1473 1471 1473 1468 1475 1476 1470 1472 1479 1483 1477 1490 1495 1495 1483 1482 1476 1478 1479 1474 1467 1471 1478 1472 1468
1449 1450 1450 1451 1451 1451 1452 1453 1455 1457 1458 1456 1461 1462 1462 1461 1463 1465 1460 1456 1455 1461 1463 1459 1459 1463 1468 1458 1463 1462 1466 1468 1470 1474 1482 1484 1484 1482 1463 1472 1483 1472 1451 1444 1444 1448 1455
1441 1441 1441 1442 1443 1445 1444 1445 1446 1449 1442 1444 1447 1452 1455 1448 1451 1445 1445 1447 1448 1449 1449 1449 1453 1457 1456 1456 1458 1460 1460 1460 1462 1461 1464 1469 1476 1473 1462 1480 1464 1411 1423 1425 1428 1426 1431
1431 1432 1432 1433 1435 1435 1437 1438 1440 1442 1443 1438 1435 1438 1438 1437 1438 1436 1441 1440 1439 1440 1441 1442 1444 1447 1451 1454 1457 1453 1453 1456 1445 1446 1448 1451 1462 1458 1454 1437 1422 1413 1411 1422 1422 1408 1407
1423 1423 1424 1425 1426 1427 1427 1429 1431 1433 1436 1435 1432 1430 1430 1427 1423 1430 1431 1430 1430 1431 1431 1427 1435 1442 1444 1447 1445 1435 1426 1418 1421 1432 1438 1444 1446 1448 1440 1431 1413 1387 1405 1409 1414 1404 1391
1416 1417 1417 1418 1418 1418 1420 1421 1421 1422 1424 1426 1424 1427 1425 1421 1410 1421 1419 1420 1422 1422 1417 1419 1422 1430 1433 1431 1429 1421 1413 1402 1406 1411 1433 1436 1435 1428 1419 1414 1401 1384 1401 1409 1408 1374 1375
1410 1410 1410 1410 1411 1411 1411 1413 1414 1415 1416 1418 1412 1418 1419 1410 1402 1409 1410 1413 1413 1412 1413 1413 1420 1417 1421 1416 1412 1401 1397 1389 1391 1383 1398 1405 1417 1414 1416 1407 1391 1386 1404 1393 1366 1368 1372
1403 1403 1403 1403 1403 1403 1404 1404 1405 1407 1408 1410 1404 1408 1410 1407 1397 1398 1397 1399 1402 1406 1409 1404 1403 1408 1405 1404 1401 1399 1388 1387 1379 1373 1374 1382 1373 1368 1379 1363 1363 1366 1363 1364 1364 1366 1369